Location: Ch?enovice
(49.7164°N, 15.2160°E)
Time: 20:08:46
(UTC+00:00)

SL-16 R/B - Pass Details

Date: 23 May 2024
Orbit: 842 x 845 km, 71.0° (Epoch: 20 June)

Event Time Altitude Azimuth Distance (km) Brightness Sun altitude
Rises 01:35:59 0° 325° (NW) 3,416 5.6 -11.2°
Reaches altitude 10° 01:38:39 10° 316° (NW) 2,477 4.7 -10.9°
Maximum altitude 01:43:38 33° 254° (WSW) 1,397 2.9 -10.4°
Drops below altitude 10° 01:48:37 10° 193° (SSW) 2,461 4.1 -9.9°
Enters shadow 01:49:08 - 190° (S) 2,637 4.3 -9.9°
